Zurück zum Katalog

STARLINK-34436

AktivKommunikationVLEO
NORAD 64358·PAYLOAD·🇺🇸 United States

Gestartet Jun 13, 2025 von Vandenberg Space Force Base

Loading…

Nächste Überflüge (nächste 24 Stunden)

TLE

AktuellSource: CelesTrak SupGP

Epoche: Sep 15, 2026, 02:34 UTC

1 64358C 25126Q   26258.10743056 -.00020504  00000+0 -71313-3 0  2589
2 64358  70.0003 275.2188 0003452 266.9649 176.7522 15.29594646    19

Verfolge STARLINK-34436 in Echtzeit mit AllMySat

Download on the App Store